#timestamp,LO_Frequency,Hit,StdDev 
1547877615.1,286046997.1,N
1547877616.0,286046997.1,N
1547877635.8,286046998.8,N
1547877655.6,286046996.6,N
1547877675.5,286046996.7,N
1547877695.3,286047000.5,N
1547877715.1,286047001.1,N
1547877735.9,286046998.4,N
1547877755.7,286047000.3,N
1547877775.6,286046998.2,N
1547877795.4,286046995.0,Y
1547877815.2,286046998.7,P
1547877835.1,286047000.5,P
1547877836.0,286047000.5,N
1547877855.8,286047000.4,N
1547877875.7,286046998.7,N
1547877895.5,286047000.8,N
1547877915.3,286047000.9,N
1547877935.2,286046998.7,N
1547877955.0,286046996.6,Y
1547877955.9,286046996.6,P
1547877975.8,286046997.8,N
1547877995.6,286046997.4,N
1547878015.4,286046995.1,Y
1547878035.3,286046996.5,P
1547878055.1,286046998.8,N
1547878075.8,286046999.2,N
1547878095.7,286046998.7,N
1547878115.5,286047000.7,N
1547878135.4,286047011.9,Y
1547878155.2,286047001.9,P
1547878175.0,286047004.2,N
1547878175.9,286047004.2,N
1547878195.8,286047003.8,N
1547878215.6,286047003.2,N
1547878235.5,286047005.5,N
1547878255.3,286047003.9,N
1547878275.1,286047001.6,N
1547878295.9,286047004.0,N
1547878315.7,286047003.1,N
1547878335.5,286047003.4,N
1547878355.4,286047001.3,N
1547878375.2,286047003.9,N
1547878395.1,286047002.9,N
1547878396.0,286047002.9,N
1547878415.8,286047003.1,N
1547878435.6,286047006.9,Y
1547878455.5,286047002.2,P
1547878475.3,286047002.6,P
1547878495.2,286047001.9,P
1547878515.9,286047002.7,Y
1547878535.7,286046997.1,P
1547878555.6,286046995.8,N
1547878575.4,286046995.9,N
1547878595.2,286046996.8,N
1547878615.1,286046999.0,N
1547878616.0,286046999.0,N
1547878635.8,286046995.4,N
1547878655.7,286046995.6,N
1547878675.5,286046993.5,N
1547878695.3,286046995.9,N
1547878715.2,286046993.4,N
1547878735.0,286046996.1,N
1547878735.9,286047011.9,Y
1547878755.8,286046998.9,P
1547878775.6,286046999.1,N
1547878795.4,286046998.9,N
1547878815.3,286046999.7,N
1547878835.1,286047002.3,N
1547878855.8,286046999.9,N
1547878875.7,286046999.7,N
1547878895.5,286047002.2,N
1547878915.4,286047001.5,N
1547878935.2,286047000.2,N
1547878955.0,286047004.0,N
1547878955.9,286047004.0,N
1547878975.8,286047004.1,N
1547878995.6,286047003.8,N
1547879015.5,286047001.6,N
1547879035.3,286047005.8,N
1547879055.1,286047005.1,N
1547879075.9,286047003.2,N
1547879095.7,286047004.1,N
1547879115.5,286047004.3,N
1547879135.4,286047003.1,N
1547879155.2,286047004.2,N
1547879175.1,286047001.9,N
1547879176.0,286047001.9,N
1547879195.8,286047003.9,N
1547879215.6,286047004.1,N
1547879235.5,286047001.4,N
1547879255.3,286047000.4,N
1547879275.1,286046998.3,N
1547879295.9,286046998.2,N
1547879315.7,286047000.4,N
1547879335.6,286047003.7,N
1547879355.4,286047001.3,N
1547879375.2,286047004.3,N
1547879395.1,286047002.4,N
1547879396.0,286047002.4,N
1547879415.8,286047000.4,N
1547879435.7,286046998.1,N
1547879455.5,286046999.7,N
1547879475.3,286047002.7,N
1547879495.2,286047001.8,N
1547879515.0,286047002.9,N
1547879515.9,286047002.9,N
1547879535.7,286047003.2,N
1547879555.6,286047006.0,Y
1547879575.4,286047000.7,P
1547879595.3,286047001.1,N
1547879615.1,286047000.9,N
1547879635.8,286046999.4,N
1547879655.7,286046995.0,Y
1547879675.5,286046995.7,P
1547879695.4,286046995.2,N
1547879715.2,286046995.7,N
1547879735.0,286046998.8,N
1547879735.9,286046998.8,N
1547879755.8,286047002.8,N
1547879775.6,286046998.9,N
1547879795.4,286046997.0,N
1547879815.3,286047000.7,N
1547879835.1,286046998.2,N
1547879855.9,286046998.4,N
1547879875.7,286047002.7,N
1547879895.5,286047002.6,N
1547879915.4,286047001.9,N
1547879935.2,286047000.6,N
1547879955.1,286046997.8,N
1547879956.0,286046997.8,N
1547879975.8,286046997.1,N
1547879995.6,286046996.6,N
1547880015.5,286046999.3,N
1547880035.3,286046999.4,N
1547880055.1,286046995.5,N
1547880075.9,286046996.5,N
1547880095.7,286046997.2,N
1547880115.6,286046996.8,N
1547880135.4,286046997.2,N
1547880155.2,286046995.9,N
1547880175.1,286046996.7,N
1547880176.0,286046996.7,N
1547880195.8,286046999.2,N
1547880215.7,286046998.4,N
1547880235.5,286046996.5,N
1547880255.3,286046999.1,N
1547880275.2,286046998.8,N
1547880295.0,286046998.5,N
1547880295.9,286046998.5,N
1547880315.8,286047001.2,N
1547880335.6,286047001.1,N
1547880355.4,286046999.0,N
1547880375.3,286046998.6,N
1547880395.1,286047001.9,N
1547880415.8,286047005.9,N
1547880435.7,286047005.2,N
1547880455.5,286047004.6,N
1547880475.4,286047003.7,N
1547880495.2,286047005.6,N
1547880515.0,286047007.4,N
1547880515.9,286047007.4,N
1547880535.8,286047005.0,N
1547880555.6,286047005.9,N
1547880575.5,286047005.7,N
1547880595.3,286047005.0,N
1547880615.1,286047005.5,N
1547880635.9,286047005.2,N
1547880655.7,286047004.7,N
1547880675.5,286047009.1,N
1547880695.4,286047005.4,N
1547880715.2,286047005.1,N
1547880735.1,286047004.2,N
1547880736.0,286047004.2,N
1547880755.8,286047001.8,N
1547880775.6,286047001.0,N
1547880795.5,286046999.8,N
1547880815.3,286047002.6,N
1547880835.1,286047003.9,N
1547880855.9,286047001.4,N
1547880875.7,286046999.8,N
1547880895.6,286047002.7,N
1547880915.4,286047003.8,N
1547880935.2,286046999.8,N
1547880955.1,286047000.6,N
1547880956.0,286047000.6,N
1547880975.8,286047002.3,N
1547880995.7,286046999.7,N
1547881015.5,286047000.6,N
1547881035.3,286046999.1,N
1547881055.2,286046999.1,N
1547881075.9,286046997.5,N
1547881095.7,286047000.3,N
1547881115.6,286047002.6,N
1547881135.4,286047002.7,N
1547881155.3,286047001.6,N
1547881175.1,286047001.2,N
1547881176.0,286047001.2,N
1547881195.8,286047002.7,N
